Content
SEND FEEDBACK

Turkmenistan Flag

ASHGABAT, TURKMENISTAN


Home > Asia > Turkmenistan
Elevation: 236 meters     Latitude: 37 58N     Longitude: 058 20E

WEATHER
 
SELECT A DAY
Number of Records: 200,906;   Date Range: 3/15/97 - 3/22/16
 
SHARE

PRINT THIS DATA

[ ← Previous Day ]
WEATHER ALMANAC - 26 JUNE, 2013
[ Next Day → ]
[ °F ]   °C
We're sorry. There is no daily almanac available for Ashgabat, Turkmenistan on 26 June, 2013.
WEATHER BY HOUR - 26 JUNE, 2013
[ °F ]   °C
Local TimeTemperatureDewpointHumidityBarometerVisibilityWind DirectionWind SpeedGust SpeedPrecipitationEventsConditions
1:00 AM27 °C8 °C30 %1006.1 hPa10 kmSW (230°)10.8 km/hScattered Clouds
2:00 AM26.1 °C11.1 °C29 %1005.8 hPa9.7 kmSW (220°)7.2 km/hPartly Cloudy
2:00 AM26 °C8 °C32 %1006.1 hPa10 kmSW (220°)7.2 km/hScattered Clouds
3:00 AM26 °C8 °C32 %1006.1 hPa10 kmVariable3.5 km/hMostly Cloudy
4:00 AM25 °C8 °C34 %1006.1 hPa10 kmWest (260°)10.8 km/hPartly Cloudy
5:00 AM26 °C8 °C32 %1006.1 hPa10 kmWSW (240°)10.8 km/hScattered Clouds
5:00 AM24.4 °C12.2 °C35 %1005.8 hPa9.7 kmSW (230°)10.8 km/hPartly Cloudy
6:00 AM26 °C9 °C34 %1007.1 hPa10 kmWSW (250°)10.8 km/hMostly Cloudy
7:00 AM27 °C12 °C39 %1007.1 hPa10 kmWNW (290°)21.6 km/hMostly Cloudy
8:00 AM29 °C14 °C40 %1008.1 hPa10 kmWNW (290°)25.3 km/hMostly Cloudy
8:00 AM28.3 °C15.6 °C35 %1007.1 hPa9.7 kmWNW (290°)25.3 km/hPartly Cloudy
9:00 AM30 °C15 °C40 %1008.1 hPa10 kmWNW (300°)25.3 km/hMostly Cloudy
10:00 AM31 °C13 °C33 %1008.1 hPa10 kmWest (280°)25.3 km/hScattered Clouds
11:00 AM32.2 °C12.2 °C20 %1007.1 hPa9.7 kmWNW (290°)21.6 km/hPartly Cloudy
11:00 AM32 °C12 °C29 %1008.1 hPa10 kmWNW (300°)21.6 km/hScattered Clouds
12:00 PM34 °C11 °C24 %1008.1 hPa10 kmNW (310°)18 km/hScattered Clouds
1:00 PM35 °C10 °C22 %1007.1 hPa10 kmNNW (330°)18 km/hScattered Clouds
2:00 PM36 °C8 °C18 %1007.1 hPa10 kmWNW (300°)10.8 km/hPartly Cloudy
2:00 PM34.4 °C13.9 °C20 %1006.1 hPa9.7 kmWNW (290°)14.3 km/hScattered Clouds
3:00 PM37 °C9 °C18 %1007.1 hPa10 kmWNW (300°)18 km/hPartly Cloudy
3:30 PM37 °C8 °C17 %1006.1 hPa10 kmNNE (30°)3.5 km/h28.8 km/hPartly Cloudy
4:00 PM38 °C8 °C16 %1007.1 hPa10 kmWNW (290°)21.6 km/hScattered Clouds
5:00 PM37.8 °C13.9 °C15 %1005.4 hPa9.7 kmNW (310°)18 km/hMostly Cloudy
5:00 PM38 °C8 °C16 %1006.1 hPa10 kmWNW (300°)18 km/hMostly Cloudy
6:00 PM37 °C8 °C17 %1006.1 hPa10 kmWest (280°)21.6 km/hMostly Cloudy
7:00 PM36 °C10 °C20 %1006.1 hPa10 kmWNW (290°)25.3 km/hMostly Cloudy
7:30 PM35 °C11 °C23 %1006.1 hPa10 kmWNW (290°)25.3 km/hMostly Cloudy
8:00 PM34.4 °C13.3 °C18 %1005.8 hPa9.7 kmWNW (290°)25.3 km/hOvercast
8:00 PM35 °C10 °C22 %1007.1 hPa10 kmWNW (290°)25.3 km/hOvercast
8:30 PM34 °C11 °C24 %1007.1 hPa10 kmWNW (290°)25.3 km/hOvercast
9:00 PM34 °C10 °C23 %1007.1 hPa10 kmWNW (290°)21.6 km/hOvercast
9:30 PM34 °C10 °C23 %1007.1 hPa10 kmWNW (290°)25.3 km/hOvercast
10:00 PM33 °C10 °C24 %1008.1 hPa10 kmWNW (290°)28.8 km/hOvercast
11:00 PM32.2 °C12.8 °C21 %1007.1 hPa9.7 kmWNW (290°)21.6 km/hMostly Cloudy
11:00 PM32 °C10 °C26 %1008.1 hPa10 kmWNW (290°)21.6 km/hMostly Cloudy
Hourly data recorded from UTAA, located 0 kilometers away from Ashgabat, Turkmenistan




STORIES FROM OUR PARTNERS